Time,TemperatureF,DewpointF,PressureIn,WindDirection,WindDirectionDegrees,WindSpeedMPH,WindSpeedGustMPH,Humidity,HourlyPrecipIn,Conditions,Clouds,dailyrainin,SoftwareType,DateUTC
2013-03-09 00:00:00,41.2,27.0,29.81,North,0,0.0,0.0,57,0.00,,,0.00,WUHU21623XXSP,2013-03-09 05:00:00,
2013-03-09 00:01:00,41.2,27.0,29.81,North,0,0.0,0.0,57,0.00,,,0.00,WUHU21623XXSP,2013-03-09 05:01:00,
2013-03-09 00:06:00,40.8,26.7,29.81,North,0,0.0,0.0,57,0.00,,,0.00,WUHU21623XXSP,2013-03-09 05:06:00,
2013-03-09 00:11:00,40.8,26.2,29.80,North,0,0.0,0.0,56,0.00,,,0.00,WUHU21623XXSP,2013-03-09 05:11:00,
2013-03-09 00:16:00,40.8,26.2,29.81,North,0,0.0,0.0,56,0.00,,,0.00,WUHU21623XXSP,2013-03-09 05:16:00,
2013-03-09 00:21:00,40.3,26.2,29.80,North,0,0.0,0.0,57,0.00,,,0.00,WUHU21623XXSP,2013-03-09 05:21:00,
2013-03-09 00:26:00,40.3,26.2,29.80,North,0,0.0,0.0,57,0.00,,,0.00,WUHU21623XXSP,2013-03-09 05:26:00,
2013-03-09 00:31:00,40.3,25.7,29.81,North,0,0.0,0.0,56,0.00,,,0.00,WUHU21623XXSP,2013-03-09 05:31:00,
2013-03-09 00:36:00,40.3,26.2,29.81,North,0,0.0,0.0,57,0.00,,,0.00,WUHU21623XXSP,2013-03-09 05:36:00,
2013-03-09 00:41:00,39.9,25.8,29.81,North,0,0.0,0.0,57,0.00,,,0.00,WUHU21623XXSP,2013-03-09 05:41:00,
2013-03-09 00:46:00,39.6,25.9,29.81,North,0,0.0,0.0,58,0.00,,,0.00,WUHU21623XXSP,2013-03-09 05:46:00,
2013-03-09 00:51:00,39.2,25.6,29.81,North,0,0.0,0.0,58,0.00,,,0.00,WUHU21623XXSP,2013-03-09 05:51:00,
2013-03-09 00:56:00,39.0,25.8,29.81,North,0,0.0,0.0,59,0.00,,,0.00,WUHU21623XXSP,2013-03-09 05:56:00,
2013-03-09 01:01:00,38.8,25.7,29.81,North,0,0.0,0.0,59,0.00,,,0.00,WUHU21623XXSP,2013-03-09 06:01:00,
2013-03-09 01:06:00,38.3,25.2,29.81,North,0,0.0,0.0,59,0.00,,,0.00,WUHU21623XXSP,2013-03-09 06:06:00,
2013-03-09 01:11:00,37.9,24.9,29.81,North,0,0.0,0.0,59,0.00,,,0.00,WUHU21623XXSP,2013-03-09 06:11:00,
2013-03-09 01:16:00,37.9,25.7,29.81,North,0,0.0,0.0,61,0.00,,,0.00,WUHU21623XXSP,2013-03-09 06:16:00,
2013-03-09 01:21:00,37.8,25.9,29.81,North,0,0.0,0.0,62,0.00,,,0.00,WUHU21623XXSP,2013-03-09 06:21:00,
2013-03-09 01:26:00,37.4,25.9,29.81,North,0,0.0,0.0,63,0.00,,,0.00,WUHU21623XXSP,2013-03-09 06:26:00,
2013-03-09 01:31:00,37.2,25.4,29.82,North,0,0.0,0.0,62,0.00,,,0.00,WUHU21623XXSP,2013-03-09 06:31:00,
2013-03-09 01:36:00,37.2,25.4,29.81,North,0,0.0,0.0,62,0.00,,,0.00,WUHU21623XXSP,2013-03-09 06:36:00,
2013-03-09 01:41:00,37.2,25.8,29.81,North,0,0.0,0.0,63,0.00,,,0.00,WUHU21623XXSP,2013-03-09 06:41:00,
2013-03-09 01:46:00,37.4,25.9,29.81,North,0,0.0,0.0,63,0.00,,,0.00,WUHU21623XXSP,2013-03-09 06:46:00,
2013-03-09 01:51:00,37.4,26.3,29.82,North,0,0.0,0.0,64,0.00,,,0.00,WUHU21623XXSP,2013-03-09 06:51:00,
2013-03-09 01:56:00,37.2,25.8,29.82,North,0,0.0,0.0,63,0.00,,,0.00,WUHU21623XXSP,2013-03-09 06:56:00,
2013-03-09 02:01:00,37.0,26.0,29.82,North,0,0.0,0.0,64,0.00,,,0.00,WUHU21623XXSP,2013-03-09 07:01:00,
2013-03-09 02:06:00,36.9,26.2,29.82,North,0,0.0,0.0,65,0.00,,,0.00,WUHU21623XXSP,2013-03-09 07:06:00,
2013-03-09 02:11:00,36.9,26.2,29.81,North,0,0.0,0.0,65,0.00,,,0.00,WUHU21623XXSP,2013-03-09 07:11:00,
2013-03-09 02:16:00,36.5,25.8,29.81,North,0,0.0,0.0,65,0.00,,,0.00,WUHU21623XXSP,2013-03-09 07:16:00,
2013-03-09 02:21:00,36.3,25.7,29.81,North,0,0.0,0.0,65,0.00,,,0.00,WUHU21623XXSP,2013-03-09 07:21:00,
2013-03-09 02:26:00,36.1,25.5,29.81,North,0,0.0,0.0,65,0.00,,,0.00,WUHU21623XXSP,2013-03-09 07:26:00,
2013-03-09 02:31:00,35.8,25.1,29.81,North,0,0.0,0.0,65,0.00,,,0.00,WUHU21623XXSP,2013-03-09 07:31:00,
2013-03-09 02:36:00,35.8,25.5,29.81,North,0,0.0,0.0,66,0.00,,,0.00,WUHU21623XXSP,2013-03-09 07:36:00,
2013-03-09 02:41:00,35.4,25.5,29.81,North,0,0.0,0.0,67,0.00,,,0.00,WUHU21623XXSP,2013-03-09 07:41:00,
2013-03-09 02:46:00,35.4,25.5,29.81,North,0,0.0,0.0,67,0.00,,,0.00,WUHU21623XXSP,2013-03-09 07:46:00,
2013-03-09 02:51:00,35.8,26.2,29.80,North,0,0.0,0.0,68,0.00,,,0.00,WUHU21623XXSP,2013-03-09 07:51:00,
2013-03-09 02:56:00,35.4,25.5,29.80,North,0,0.0,0.0,67,0.00,,,0.00,WUHU21623XXSP,2013-03-09 07:56:00,
2013-03-09 03:01:00,35.4,25.9,29.80,North,0,0.0,0.0,68,0.00,,,0.00,WUHU21623XXSP,2013-03-09 08:01:00,
2013-03-09 03:06:00,35.2,25.3,29.80,North,0,0.0,0.0,67,0.00,,,0.00,WUHU21623XXSP,2013-03-09 08:06:00,
2013-03-09 03:11:00,34.9,25.3,29.80,North,0,0.0,0.0,68,0.00,,,0.00,WUHU21623XXSP,2013-03-09 08:11:00,
2013-03-09 03:16:00,34.9,25.3,29.79,North,0,0.0,0.0,68,0.00,,,0.00,WUHU21623XXSP,2013-03-09 08:16:00,
2013-03-09 03:21:00,34.5,25.0,29.79,North,0,0.0,0.0,68,0.00,,,0.00,WUHU21623XXSP,2013-03-09 08:21:00,
2013-03-09 03:26:00,34.3,24.8,29.79,North,0,0.0,0.0,68,0.00,,,0.00,WUHU21623XXSP,2013-03-09 08:26:00,
2013-03-09 03:31:00,34.3,25.2,29.79,North,0,0.0,0.0,69,0.00,,,0.00,WUHU21623XXSP,2013-03-09 08:31:00,
2013-03-09 03:36:00,34.3,25.2,29.79,North,0,0.0,0.0,69,0.00,,,0.00,WUHU21623XXSP,2013-03-09 08:36:00,
2013-03-09 03:41:00,34.3,25.2,29.79,North,0,0.0,0.0,69,0.00,,,0.00,WUHU21623XXSP,2013-03-09 08:41:00,
2013-03-09 03:46:00,34.3,25.2,29.79,North,0,0.0,0.0,69,0.00,,,0.00,WUHU21623XXSP,2013-03-09 08:46:00,
2013-03-09 03:51:00,34.2,25.0,29.79,North,0,0.0,0.0,69,0.00,,,0.00,WUHU21623XXSP,2013-03-09 08:51:00,
2013-03-09 03:56:00,34.2,25.0,29.79,North,0,0.0,0.0,69,0.00,,,0.00,WUHU21623XXSP,2013-03-09 08:56:00,
2013-03-09 04:01:00,34.2,25.3,29.80,North,0,0.0,0.0,70,0.00,,,0.00,WUHU21623XXSP,2013-03-09 09:01:00,
2013-03-09 04:06:00,34.3,25.5,29.81,North,0,0.0,0.0,70,0.00,,,0.00,WUHU21623XXSP,2013-03-09 09:06:00,
2013-03-09 04:11:00,34.3,25.8,29.80,North,0,0.0,0.0,71,0.00,,,0.00,WUHU21623XXSP,2013-03-09 09:11:00,
2013-03-09 04:16:00,34.3,25.8,29.80,North,0,0.0,0.0,71,0.00,,,0.00,WUHU21623XXSP,2013-03-09 09:16:00,
2013-03-09 04:21:00,34.2,25.7,29.81,North,0,0.0,0.0,71,0.00,,,0.00,WUHU21623XXSP,2013-03-09 09:21:00,
2013-03-09 04:26:00,34.0,25.5,29.81,North,0,0.0,0.0,71,0.00,,,0.00,WUHU21623XXSP,2013-03-09 09:26:00,
2013-03-09 04:31:00,34.0,25.5,29.80,North,0,0.0,0.0,71,0.00,,,0.00,WUHU21623XXSP,2013-03-09 09:31:00,
2013-03-09 04:36:00,33.8,25.3,29.80,North,0,0.0,0.0,71,0.00,,,0.00,WUHU21623XXSP,2013-03-09 09:36:00,
2013-03-09 04:41:00,33.6,25.1,29.80,North,0,0.0,0.0,71,0.00,,,0.00,WUHU21623XXSP,2013-03-09 09:41:00,
2013-03-09 04:46:00,33.4,24.7,29.80,North,0,0.0,0.0,70,0.00,,,0.00,WUHU21623XXSP,2013-03-09 09:46:00,
2013-03-09 04:51:00,33.4,25.0,29.80,North,0,0.0,0.0,71,0.00,,,0.00,WUHU21623XXSP,2013-03-09 09:51:00,
2013-03-09 04:56:00,33.6,25.1,29.80,North,0,0.0,0.0,71,0.00,,,0.00,WUHU21623XXSP,2013-03-09 09:56:00,
2013-03-09 05:01:00,33.8,25.3,29.80,North,0,0.0,0.0,71,0.00,,,0.00,WUHU21623XXSP,2013-03-09 10:01:00,
2013-03-09 05:06:00,34.0,25.2,29.80,North,0,0.0,0.0,70,0.00,,,0.00,WUHU21623XXSP,2013-03-09 10:06:00,
2013-03-09 05:11:00,34.2,25.3,29.80,North,0,0.0,0.0,70,0.00,,,0.00,WUHU21623XXSP,2013-03-09 10:11:00,
2013-03-09 05:16:00,34.2,25.3,29.80,North,0,0.0,0.0,70,0.00,,,0.00,WUHU21623XXSP,2013-03-09 10:16:00,
2013-03-09 05:21:00,34.3,25.2,29.80,North,0,0.0,0.0,69,0.00,,,0.00,WUHU21623XXSP,2013-03-09 10:21:00,
2013-03-09 05:26:00,34.3,25.2,29.81,North,0,0.0,0.0,69,0.00,,,0.00,WUHU21623XXSP,2013-03-09 10:26:00,
2013-03-09 05:31:00,34.3,25.2,29.81,North,0,0.0,0.0,69,0.00,,,0.00,WUHU21623XXSP,2013-03-09 10:31:00,
2013-03-09 05:36:00,34.3,25.2,29.81,North,0,0.0,0.0,69,0.00,,,0.00,WUHU21623XXSP,2013-03-09 10:36:00,
2013-03-09 05:41:00,34.3,25.2,29.81,North,0,0.0,0.0,69,0.00,,,0.00,WUHU21623XXSP,2013-03-09 10:41:00,
2013-03-09 05:46:00,34.3,25.5,29.81,North,0,0.0,0.0,70,0.00,,,0.00,WUHU21623XXSP,2013-03-09 10:46:00,
2013-03-09 05:51:00,34.2,25.3,29.81,North,0,0.0,0.0,70,0.00,,,0.00,WUHU21623XXSP,2013-03-09 10:51:00,
2013-03-09 05:56:00,34.2,25.3,29.81,North,0,0.0,0.0,70,0.00,,,0.00,WUHU21623XXSP,2013-03-09 10:56:00,
2013-03-09 06:01:00,34.3,25.2,29.82,North,0,0.0,0.0,69,0.00,,,0.00,WUHU21623XXSP,2013-03-09 11:01:00,
2013-03-09 06:06:00,34.3,25.2,29.82,North,0,0.0,0.0,69,0.00,,,0.00,WUHU21623XXSP,2013-03-09 11:06:00,
2013-03-09 06:11:00,34.3,25.2,29.82,North,0,0.0,0.0,69,0.00,,,0.00,WUHU21623XXSP,2013-03-09 11:11:00,
2013-03-09 06:16:00,34.5,25.3,29.82,North,0,0.0,0.0,69,0.00,,,0.00,WUHU21623XXSP,2013-03-09 11:16:00,
2013-03-09 06:21:00,34.9,25.7,29.82,North,0,0.0,0.0,69,0.00,,,0.00,WUHU21623XXSP,2013-03-09 11:21:00,
2013-03-09 06:26:00,35.1,25.9,29.83,North,0,0.0,0.0,69,0.00,,,0.00,WUHU21623XXSP,2013-03-09 11:26:00,
2013-03-09 06:32:00,35.2,25.7,29.82,North,0,0.0,0.0,68,0.00,,,0.00,WUHU21623XXSP,2013-03-09 11:32:00,
2013-03-09 06:37:00,35.4,25.9,29.83,North,0,0.0,0.0,68,0.00,,,0.00,WUHU21623XXSP,2013-03-09 11:37:00,
2013-03-09 06:42:00,35.4,25.9,29.83,North,0,0.0,0.0,68,0.00,,,0.00,WUHU21623XXSP,2013-03-09 11:42:00,
2013-03-09 06:47:00,35.8,26.2,29.83,East,90,0.0,0.0,68,0.00,,,0.00,WUHU21623XXSP,2013-03-09 11:47:00,
2013-03-09 06:52:00,36.0,26.0,29.84,East,90,0.0,0.0,67,0.00,,,0.00,WUHU21623XXSP,2013-03-09 11:52:00,
2013-03-09 06:57:00,36.3,26.4,29.84,East,90,0.0,0.0,67,0.00,,,0.00,WUHU21623XXSP,2013-03-09 11:57:00,
2013-03-09 07:02:00,37.0,26.7,29.84,ESE,112,0.0,2.2,66,0.00,,,0.00,WUHU21623XXSP,2013-03-09 12:02:00,
2013-03-09 07:07:00,37.6,27.2,29.84,ESE,112,0.0,2.2,66,0.00,,,0.00,WUHU21623XXSP,2013-03-09 12:07:00,
2013-03-09 07:12:00,37.9,27.6,29.84,ESE,112,0.0,0.0,66,0.00,,,0.00,WUHU21623XXSP,2013-03-09 12:12:00,
2013-03-09 07:17:00,38.5,27.7,29.84,East,90,0.0,6.0,65,0.00,,,0.00,WUHU21623XXSP,2013-03-09 12:17:00,
2013-03-09 07:22:00,39.2,27.9,29.84,East,90,0.0,6.0,64,0.00,,,0.00,WUHU21623XXSP,2013-03-09 12:22:00,
2013-03-09 07:27:00,39.9,28.7,29.85,East,90,0.0,0.0,64,0.00,,,0.00,WUHU21623XXSP,2013-03-09 12:27:00,
2013-03-09 07:32:00,40.8,29.2,29.85,ESE,112,0.0,0.0,63,0.00,,,0.00,WUHU21623XXSP,2013-03-09 12:32:00,
2013-03-09 07:37:00,41.9,30.2,29.85,ESE,112,0.0,0.0,63,0.00,,,0.00,WUHU21623XXSP,2013-03-09 12:37:00,
2013-03-09 07:42:00,44.2,31.3,29.86,East,90,0.0,0.0,60,0.00,,,0.00,WUHU21623XXSP,2013-03-09 12:42:00,
2013-03-09 07:47:00,45.1,31.7,29.86,ESE,112,0.0,0.0,59,0.00,,,0.00,WUHU21623XXSP,2013-03-09 12:47:00,
2013-03-09 07:52:00,46.2,31.7,29.85,East,90,0.0,2.5,57,0.00,,,0.00,WUHU21623XXSP,2013-03-09 12:52:00,
2013-03-09 07:57:00,47.1,32.1,29.86,SE,135,0.0,2.5,56,0.00,,,0.00,WUHU21623XXSP,2013-03-09 12:57:00,
2013-03-09 08:02:00,48.4,32.9,29.86,SE,135,0.0,2.5,55,0.00,,,0.00,WUHU21623XXSP,2013-03-09 13:02:00,
2013-03-09 08:07:00,48.9,32.5,29.86,ESE,112,0.0,4.5,53,0.00,,,0.00,WUHU21623XXSP,2013-03-09 13:07:00,
2013-03-09 08:12:00,49.6,32.3,29.86,East,90,0.0,4.5,51,0.00,,,0.00,WUHU21623XXSP,2013-03-09 13:12:00,
2013-03-09 08:17:00,49.8,32.5,29.87,SSE,157,0.0,0.2,51,0.00,,,0.00,WUHU21623XXSP,2013-03-09 13:17:00,
2013-03-09 08:22:00,49.8,31.4,29.87,SE,135,0.0,6.5,49,0.00,,,0.00,WUHU21623XXSP,2013-03-09 13:22:00,
2013-03-09 08:27:00,50.2,31.8,29.87,ENE,67,0.0,6.5,49,0.00,,,0.00,WUHU21623XXSP,2013-03-09 13:27:00,
2013-03-09 08:32:00,50.5,32.1,29.87,SE,135,0.0,4.5,49,0.00,,,0.00,WUHU21623XXSP,2013-03-09 13:32:00,
2013-03-09 08:37:00,51.3,32.2,29.87,ESE,112,0.0,6.0,48,0.00,,,0.00,WUHU21623XXSP,2013-03-09 13:37:00,
2013-03-09 08:42:00,52.0,32.3,29.88,SE,135,1.8,6.0,47,0.00,,,0.00,WUHU21623XXSP,2013-03-09 13:42:00,
2013-03-09 08:47:00,52.2,31.9,29.88,ESE,112,0.0,4.9,46,0.00,,,0.00,WUHU21623XXSP,2013-03-09 13:47:00,
2013-03-09 08:52:00,52.3,32.1,29.88,ENE,67,0.0,4.5,46,0.00,,,0.00,WUHU21623XXSP,2013-03-09 13:52:00,
2013-03-09 08:57:00,52.7,31.8,29.88,East,90,0.0,6.5,45,0.00,,,0.00,WUHU21623XXSP,2013-03-09 13:57:00,
2013-03-09 09:02:00,53.2,32.3,29.88,SE,135,0.0,6.5,45,0.00,,,0.00,WUHU21623XXSP,2013-03-09 14:02:00,
2013-03-09 09:07:00,53.8,32.2,29.89,SE,135,0.0,4.0,44,0.00,,,0.00,WUHU21623XXSP,2013-03-09 14:07:00,
2013-03-09 09:12:00,53.4,31.4,29.89,SSE,157,5.4,7.2,43,0.00,,,0.00,WUHU21623XXSP,2013-03-09 14:12:00,
2013-03-09 09:17:00,53.8,31.7,29.89,East,90,0.0,7.2,43,0.00,,,0.00,WUHU21623XXSP,2013-03-09 14:17:00,
2013-03-09 09:22:00,54.3,32.2,29.89,ENE,67,0.0,8.1,43,0.00,,,0.00,WUHU21623XXSP,2013-03-09 14:22:00,
2013-03-09 09:27:00,54.7,31.9,29.89,East,90,0.0,8.1,42,0.00,,,0.00,WUHU21623XXSP,2013-03-09 14:27:00,
2013-03-09 09:32:00,55.2,32.4,29.89,ESE,112,0.0,4.7,42,0.00,,,0.00,WUHU21623XXSP,2013-03-09 14:32:00,
2013-03-09 09:37:00,55.4,32.0,29.89,SE,135,0.0,4.7,41,0.00,,,0.00,WUHU21623XXSP,2013-03-09 14:37:00,
2013-03-09 09:42:00,56.1,33.2,29.89,ESE,112,2.0,4.7,42,0.00,,,0.00,WUHU21623XXSP,2013-03-09 14:42:00,
2013-03-09 09:47:00,56.5,32.4,29.89,ENE,67,0.0,7.4,40,0.00,,,0.00,WUHU21623XXSP,2013-03-09 14:47:00,
2013-03-09 09:52:00,56.7,32.6,29.89,SE,135,0.0,7.4,40,0.00,,,0.00,WUHU21623XXSP,2013-03-09 14:52:00,
2013-03-09 09:57:00,57.4,33.2,29.89,SE,135,1.8,5.1,40,0.00,,,0.00,WUHU21623XXSP,2013-03-09 14:57:00,
2013-03-09 10:02:00,58.1,33.2,29.89,SE,135,0.0,5.1,39,0.00,,,0.00,WUHU21623XXSP,2013-03-09 15:02:00,
2013-03-09 10:07:00,58.8,33.8,29.89,SE,135,0.0,4.3,39,0.00,,,0.00,WUHU21623XXSP,2013-03-09 15:07:00,
2013-03-09 10:12:00,58.8,33.1,29.89,SE,135,0.0,4.7,38,0.00,,,0.00,WUHU21623XXSP,2013-03-09 15:12:00,
2013-03-09 10:17:00,59.4,33.6,29.89,SE,135,2.5,4.7,38,0.00,,,0.00,WUHU21623XXSP,2013-03-09 15:17:00,
2013-03-09 10:22:00,59.5,33.1,29.89,East,90,0.0,5.6,37,0.00,,,0.00,WUHU21623XXSP,2013-03-09 15:22:00,
2013-03-09 10:27:00,60.1,33.5,29.89,SE,135,0.0,5.6,37,0.00,,,0.00,WUHU21623XXSP,2013-03-09 15:27:00,
2013-03-09 10:32:00,60.4,33.8,29.88,ESE,112,3.8,4.5,37,0.00,,,0.00,WUHU21623XXSP,2013-03-09 15:32:00,
2013-03-09 10:37:00,59.5,33.1,29.89,SE,135,0.0,5.4,37,0.00,,,0.00,WUHU21623XXSP,2013-03-09 15:37:00,
2013-03-09 10:42:00,60.1,32.8,29.89,East,90,0.0,5.4,36,0.00,,,0.00,WUHU21623XXSP,2013-03-09 15:42:00,
2013-03-09 10:47:00,61.0,33.6,29.88,SE,135,0.0,3.1,36,0.00,,,0.00,WUHU21623XXSP,2013-03-09 15:47:00,
2013-03-09 10:52:00,61.7,33.5,29.89,ENE,67,0.0,3.1,35,0.00,,,0.00,WUHU21623XXSP,2013-03-09 15:52:00,
2013-03-09 10:57:00,62.8,34.5,29.89,SE,135,0.0,4.7,35,0.00,,,0.00,WUHU21623XXSP,2013-03-09 15:57:00,
2013-03-09 11:02:00,63.7,34.6,29.89,WSW,247,0.0,4.7,34,0.00,,,0.00,WUHU21623XXSP,2013-03-09 16:02:00,
2013-03-09 11:07:00,64.2,35.1,29.89,SSE,157,0.0,4.9,34,0.00,,,0.00,WUHU21623XXSP,2013-03-09 16:07:00,
2013-03-09 11:12:00,65.1,35.9,29.89,ENE,67,0.0,4.9,34,0.00,,,0.00,WUHU21623XXSP,2013-03-09 16:12:00,
2013-03-09 11:17:00,66.7,36.6,29.88,ENE,67,0.0,0.0,33,0.00,,,0.00,WUHU21623XXSP,2013-03-09 16:17:00,
2013-03-09 11:22:00,67.8,36.7,29.89,SE,135,0.0,3.1,32,0.00,,,0.00,WUHU21623XXSP,2013-03-09 16:22:00,
2013-03-09 11:27:00,67.8,36.0,29.88,SE,135,0.0,3.1,31,0.00,,,0.00,WUHU21623XXSP,2013-03-09 16:27:00,
2013-03-09 11:32:00,67.8,36.0,29.88,East,90,0.0,3.4,31,0.00,,,0.00,WUHU21623XXSP,2013-03-09 16:32:00,
2013-03-09 11:37:00,68.2,35.6,29.88,NE,45,0.0,3.8,30,0.00,,,0.00,WUHU21623XXSP,2013-03-09 16:37:00,
2013-03-09 11:42:00,69.4,36.7,29.88,NNW,337,0.0,3.8,30,0.00,,,0.00,WUHU21623XXSP,2013-03-09 16:42:00,
2013-03-09 11:47:00,70.0,37.5,29.88,SE,135,0.0,0.0,30,0.00,,,0.00,WUHU21623XXSP,2013-03-09 16:47:00,
2013-03-09 11:52:00,70.5,36.7,29.88,SE,135,0.0,4.9,29,0.00,,,0.00,WUHU21623XXSP,2013-03-09 16:52:00,
2013-03-09 11:57:00,71.4,37.5,29.88,SE,135,0.0,4.9,29,0.00,,,0.00,WUHU21623XXSP,2013-03-09 16:57:00,
2013-03-09 12:02:00,72.1,37.0,29.87,ESE,112,0.0,3.8,28,0.00,,,0.00,WUHU21623XXSP,2013-03-09 17:02:00,
2013-03-09 12:07:00,72.1,37.0,29.87,ESE,112,0.0,3.8,28,0.00,,,0.00,WUHU21623XXSP,2013-03-09 17:07:00,
2013-03-09 12:12:00,73.9,38.6,29.87,ESE,112,0.0,0.0,28,0.00,,,0.00,WUHU21623XXSP,2013-03-09 17:12:00,
2013-03-09 12:17:00,75.2,38.6,29.87,ESE,112,0.0,0.0,27,0.00,,,0.00,WUHU21623XXSP,2013-03-09 17:17:00,
2013-03-09 12:22:00,76.6,38.8,29.86,ENE,67,0.0,3.6,26,0.00,,,0.00,WUHU21623XXSP,2013-03-09 17:22:00,
2013-03-09 12:27:00,76.3,37.5,29.86,ENE,67,0.0,3.6,25,0.00,,,0.00,WUHU21623XXSP,2013-03-09 17:27:00,
2013-03-09 12:32:00,75.9,37.2,29.86,ENE,67,0.0,4.3,25,0.00,,,0.00,WUHU21623XXSP,2013-03-09 17:32:00,
2013-03-09 12:37:00,75.9,37.2,29.86,SE,135,0.0,4.3,25,0.00,,,0.00,WUHU21623XXSP,2013-03-09 17:37:00,
2013-03-09 12:42:00,74.8,36.3,29.85,SE,135,0.0,5.6,25,0.00,,,0.00,WUHU21623XXSP,2013-03-09 17:42:00,
2013-03-09 12:47:00,74.5,36.0,29.85,SE,135,0.0,5.6,25,0.00,,,0.00,WUHU21623XXSP,2013-03-09 17:47:00,
2013-03-09 12:52:00,76.3,37.5,29.85,West,270,0.0,0.0,25,0.00,,,0.00,WUHU21623XXSP,2013-03-09 17:52:00,
2013-03-09 12:57:00,75.7,36.0,29.84,East,90,0.0,0.0,24,0.00,,,0.00,WUHU21623XXSP,2013-03-09 17:57:00,
2013-03-09 13:03:00,75.7,37.0,29.84,ENE,67,0.0,3.1,25,0.00,,,0.00,WUHU21623XXSP,2013-03-09 18:03:00,
2013-03-09 13:07:00,76.3,36.5,29.84,ENE,67,0.0,3.6,24,0.00,,,0.00,WUHU21623XXSP,2013-03-09 18:07:00,
2013-03-09 13:13:00,76.6,36.8,29.83,SE,135,0.0,3.6,24,0.00,,,0.00,WUHU21623XXSP,2013-03-09 18:13:00,
2013-03-09 13:18:00,77.4,37.4,29.83,NE,45,0.0,0.0,24,0.00,,,0.00,WUHU21623XXSP,2013-03-09 18:18:00,
2013-03-09 13:23:00,77.2,37.2,29.83,NE,45,0.0,0.0,24,0.00,,,0.00,WUHU21623XXSP,2013-03-09 18:23:00,
2013-03-09 13:28:00,75.0,36.4,29.83,ENE,67,0.0,4.0,25,0.00,,,0.00,WUHU21623XXSP,2013-03-09 18:28:00,
2013-03-09 13:33:00,75.2,36.6,29.82,NNE,22,0.0,4.0,25,0.00,,,0.00,WUHU21623XXSP,2013-03-09 18:33:00,
2013-03-09 13:38:00,75.9,37.2,29.82,WSW,247,0.0,0.0,25,0.00,,,0.00,WUHU21623XXSP,2013-03-09 18:38:00,
2013-03-09 13:43:00,77.2,37.2,29.82,WNW,292,0.0,0.0,24,0.00,,,0.00,WUHU21623XXSP,2013-03-09 18:43:00,
2013-03-09 13:48:00,76.8,36.9,29.81,WSW,247,0.0,0.0,24,0.00,,,0.00,WUHU21623XXSP,2013-03-09 18:48:00,
2013-03-09 13:53:00,77.5,37.5,29.81,North,0,0.0,0.0,24,0.00,,,0.00,WUHU21623XXSP,2013-03-09 18:53:00,
2013-03-09 13:58:00,78.6,37.3,29.81,WSW,247,0.0,0.0,23,0.00,,,0.00,WUHU21623XXSP,2013-03-09 18:58:00,
2013-03-09 14:03:00,75.4,35.7,29.81,NE,45,0.0,0.0,24,0.00,,,0.00,WUHU21623XXSP,2013-03-09 19:03:00,
2013-03-09 14:08:00,76.6,36.8,29.81,ESE,112,0.0,4.3,24,0.00,,,0.00,WUHU21623XXSP,2013-03-09 19:08:00,
2013-03-09 14:13:00,78.4,37.2,29.81,WSW,247,0.0,4.3,23,0.00,,,0.00,WUHU21623XXSP,2013-03-09 19:13:00,
2013-03-09 14:18:00,81.3,38.6,29.80,ENE,67,0.0,0.0,22,0.00,,,0.00,WUHU21623XXSP,2013-03-09 19:18:00,
2013-03-09 14:23:00,82.6,39.6,29.80,NE,45,0.0,0.0,22,0.00,,,0.00,WUHU21623XXSP,2013-03-09 19:23:00,
2013-03-09 14:28:00,82.0,38.2,29.80,NNE,22,0.0,3.1,21,0.00,,,0.00,WUHU21623XXSP,2013-03-09 19:28:00,
2013-03-09 14:33:00,81.3,37.6,29.80,WSW,247,0.0,3.1,21,0.00,,,0.00,WUHU21623XXSP,2013-03-09 19:33:00,
2013-03-09 14:38:00,81.7,37.9,29.79,WSW,247,0.0,0.0,21,0.00,,,0.00,WUHU21623XXSP,2013-03-09 19:38:00,
2013-03-09 14:43:00,82.0,39.2,29.79,WSW,247,0.0,0.0,22,0.00,,,0.00,WUHU21623XXSP,2013-03-09 19:43:00,
2013-03-09 14:48:00,82.4,38.4,29.79,East,90,0.0,0.0,21,0.00,,,0.00,WUHU21623XXSP,2013-03-09 19:48:00,
2013-03-09 14:53:00,82.8,38.7,29.78,WSW,247,0.0,0.0,21,0.00,,,0.00,WUHU21623XXSP,2013-03-09 19:53:00,
2013-03-09 14:58:00,83.1,39.0,29.78,WSW,247,0.0,5.1,21,0.00,,,0.00,WUHU21623XXSP,2013-03-09 19:58:00,
2013-03-09 15:03:00,82.6,38.6,29.78,WSW,247,0.0,5.1,21,0.00,,,0.00,WUHU21623XXSP,2013-03-09 20:03:00,
2013-03-09 15:08:00,82.0,37.1,29.78,WSW,247,0.0,4.3,20,0.00,,,0.00,WUHU21623XXSP,2013-03-09 20:08:00,
2013-03-09 15:13:00,80.4,36.8,29.78,WSW,247,0.0,4.3,21,0.00,,,0.00,WUHU21623XXSP,2013-03-09 20:13:00,
2013-03-09 15:18:00,80.4,36.8,29.78,WSW,247,0.0,0.0,21,0.00,,,0.00,WUHU21623XXSP,2013-03-09 20:18:00,
2013-03-09 15:23:00,81.1,37.4,29.78,WSW,247,0.0,6.5,21,0.00,,,0.00,WUHU21623XXSP,2013-03-09 20:23:00,
2013-03-09 15:28:00,81.0,37.3,29.78,WSW,247,0.0,6.5,21,0.00,,,0.00,WUHU21623XXSP,2013-03-09 20:28:00,
2013-03-09 15:33:00,81.1,37.4,29.78,SE,135,0.0,0.0,21,0.00,,,0.00,WUHU21623XXSP,2013-03-09 20:33:00,
2013-03-09 15:38:00,80.4,36.8,29.78,East,90,0.0,0.0,21,0.00,,,0.00,WUHU21623XXSP,2013-03-09 20:38:00,
2013-03-09 15:43:00,74.1,33.6,29.78,East,90,0.0,0.0,23,0.00,,,0.00,WUHU21623XXSP,2013-03-09 20:43:00,
2013-03-09 15:48:00,70.9,31.9,29.78,SE,135,0.0,0.0,24,0.00,,,0.00,WUHU21623XXSP,2013-03-09 20:48:00,
2013-03-09 15:53:00,69.3,31.5,29.78,SE,135,0.0,0.0,25,0.00,,,0.00,WUHU21623XXSP,2013-03-09 20:53:00,
2013-03-09 15:58:00,68.2,31.6,29.78,SE,135,0.0,0.0,26,0.00,,,0.00,WUHU21623XXSP,2013-03-09 20:58:00,
2013-03-09 16:03:00,67.3,31.8,29.77,SE,135,0.0,0.0,27,0.00,,,0.00,WUHU21623XXSP,2013-03-09 21:03:00,
2013-03-09 16:08:00,66.7,31.4,29.78,SE,135,0.0,0.0,27,0.00,,,0.00,WUHU21623XXSP,2013-03-09 21:08:00,
2013-03-09 16:13:00,67.3,31.8,29.78,SSE,157,0.0,2.2,27,0.00,,,0.00,WUHU21623XXSP,2013-03-09 21:13:00,
2013-03-09 16:18:00,67.6,32.1,29.78,SE,135,0.0,2.2,27,0.00,,,0.00,WUHU21623XXSP,2013-03-09 21:18:00,
2013-03-09 16:23:00,66.9,31.6,29.77,SE,135,0.0,2.5,27,0.00,,,0.00,WUHU21623XXSP,2013-03-09 21:23:00,
2013-03-09 16:28:00,66.0,30.8,29.77,SE,135,0.0,2.5,27,0.00,,,0.00,WUHU21623XXSP,2013-03-09 21:28:00,
2013-03-09 16:33:00,65.3,31.2,29.77,SE,135,0.0,0.0,28,0.00,,,0.00,WUHU21623XXSP,2013-03-09 21:33:00,
2013-03-09 16:38:00,64.2,30.2,29.77,SE,135,0.0,0.0,28,0.00,,,0.00,WUHU21623XXSP,2013-03-09 21:38:00,
2013-03-09 16:43:00,63.5,30.6,29.77,SE,135,0.0,0.0,29,0.00,,,0.00,WUHU21623XXSP,2013-03-09 21:43:00,
2013-03-09 16:48:00,63.1,30.2,29.77,SE,135,0.0,0.0,29,0.00,,,0.00,WUHU21623XXSP,2013-03-09 21:48:00,
2013-03-09 16:53:00,62.6,30.7,29.77,SE,135,0.0,0.0,30,0.00,,,0.00,WUHU21623XXSP,2013-03-09 21:53:00,
2013-03-09 16:58:00,62.4,30.6,29.77,SE,135,0.0,0.0,30,0.00,,,0.00,WUHU21623XXSP,2013-03-09 21:58:00,
2013-03-09 17:04:00,62.4,30.6,29.77,SSE,157,0.0,0.0,30,0.00,,,0.00,WUHU21623XXSP,2013-03-09 22:04:00,
2013-03-09 17:09:00,62.4,30.6,29.77,SSE,157,0.0,0.0,30,0.00,,,0.00,WUHU21623XXSP,2013-03-09 22:09:00,
2013-03-09 17:14:00,63.0,31.8,29.77,SSE,157,0.0,0.0,31,0.00,,,0.00,WUHU21623XXSP,2013-03-09 22:14:00,
2013-03-09 17:19:00,62.8,30.9,29.76,SE,135,0.0,0.0,30,0.00,,,0.00,WUHU21623XXSP,2013-03-09 22:19:00,
2013-03-09 17:24:00,62.8,30.9,29.76,SE,135,0.0,0.0,30,0.00,,,0.00,WUHU21623XXSP,2013-03-09 22:24:00,
2013-03-09 17:29:00,62.4,30.6,29.77,SE,135,0.0,0.0,30,0.00,,,0.00,WUHU21623XXSP,2013-03-09 22:29:00,
2013-03-09 17:34:00,61.9,30.1,29.76,SE,135,0.0,0.0,30,0.00,,,0.00,WUHU21623XXSP,2013-03-09 22:34:00,
2013-03-09 17:39:00,61.3,29.6,29.77,SE,135,0.0,0.0,30,0.00,,,0.00,WUHU21623XXSP,2013-03-09 22:39:00,
2013-03-09 17:44:00,61.0,30.7,29.77,SE,135,0.0,0.0,32,0.00,,,0.00,WUHU21623XXSP,2013-03-09 22:44:00,
2013-03-09 17:49:00,61.7,31.4,29.77,SE,135,0.0,0.0,32,0.00,,,0.00,WUHU21623XXSP,2013-03-09 22:49:00,
2013-03-09 17:54:00,62.2,30.4,29.77,SE,135,0.0,0.0,30,0.00,,,0.00,WUHU21623XXSP,2013-03-09 22:54:00,
2013-03-09 17:59:00,61.2,30.9,29.78,SE,135,0.0,0.0,32,0.00,,,0.00,WUHU21623XXSP,2013-03-09 22:59:00,
2013-03-09 18:04:00,60.1,30.0,29.77,SE,135,0.0,0.0,32,0.00,,,0.00,WUHU21623XXSP,2013-03-09 23:04:00,
2013-03-09 18:09:00,59.4,30.1,29.77,SE,135,0.0,0.0,33,0.00,,,0.00,WUHU21623XXSP,2013-03-09 23:09:00,
2013-03-09 18:14:00,58.8,30.3,29.78,SE,135,0.0,0.0,34,0.00,,,0.00,WUHU21623XXSP,2013-03-09 23:14:00,
2013-03-09 18:19:00,57.9,30.2,29.78,SE,135,0.0,0.0,35,0.00,,,0.00,WUHU21623XXSP,2013-03-09 23:19:00,
2013-03-09 18:24:00,57.4,29.7,29.78,SE,135,0.0,0.0,35,0.00,,,0.00,WUHU21623XXSP,2013-03-09 23:24:00,
2013-03-09 18:29:00,56.8,29.9,29.77,SE,135,0.0,0.0,36,0.00,,,0.00,WUHU21623XXSP,2013-03-09 23:29:00,
2013-03-09 18:34:00,56.1,30.0,29.78,SE,135,0.0,0.0,37,0.00,,,0.00,WUHU21623XXSP,2013-03-09 23:34:00,
2013-03-09 18:39:00,55.6,30.2,29.78,SE,135,0.0,0.0,38,0.00,,,0.00,WUHU21623XXSP,2013-03-09 23:39:00,
2013-03-09 18:44:00,55.0,29.7,29.78,SE,135,0.0,0.0,38,0.00,,,0.00,WUHU21623XXSP,2013-03-09 23:44:00,
2013-03-09 18:49:00,54.1,28.9,29.78,SE,135,0.0,0.0,38,0.00,,,0.00,WUHU21623XXSP,2013-03-09 23:49:00,
2013-03-09 18:54:00,53.8,29.3,29.78,SE,135,0.0,0.0,39,0.00,,,0.00,WUHU21623XXSP,2013-03-09 23:54:00,
2013-03-09 18:59:00,53.2,28.8,29.78,SE,135,0.0,0.0,39,0.00,,,0.00,WUHU21623XXSP,2013-03-09 23:59:00,
2013-03-09 19:04:00,52.9,28.5,29.78,SE,135,0.0,0.0,39,0.00,,,0.00,WUHU21623XXSP,2013-03-10 00:04:00,
2013-03-09 19:09:00,52.7,29.6,29.78,SE,135,0.0,0.0,41,0.00,,,0.00,WUHU21623XXSP,2013-03-10 00:09:00,
2013-03-09 19:14:00,52.3,29.3,29.78,SE,135,0.0,0.0,41,0.00,,,0.00,WUHU21623XXSP,2013-03-10 00:14:00,
2013-03-09 19:19:00,52.2,30.2,29.78,SE,135,0.0,0.0,43,0.00,,,0.00,WUHU21623XXSP,2013-03-10 00:19:00,
2013-03-09 19:24:00,51.6,30.3,29.78,SE,135,0.0,0.0,44,0.00,,,0.00,WUHU21623XXSP,2013-03-10 00:24:00,
2013-03-09 19:29:00,51.4,30.1,29.78,SE,135,0.0,0.0,44,0.00,,,0.00,WUHU21623XXSP,2013-03-10 00:29:00,
2013-03-09 19:34:00,50.9,29.6,29.78,SE,135,0.0,0.0,44,0.00,,,0.00,WUHU21623XXSP,2013-03-10 00:34:00,
2013-03-09 19:39:00,50.9,29.6,29.78,SE,135,0.0,0.0,44,0.00,,,0.00,WUHU21623XXSP,2013-03-10 00:39:00,
2013-03-09 19:44:00,50.9,29.6,29.78,SE,135,0.0,0.0,44,0.00,,,0.00,WUHU21623XXSP,2013-03-10 00:44:00,
2013-03-09 19:49:00,51.1,29.8,29.78,SE,135,0.0,0.0,44,0.00,,,0.00,WUHU21623XXSP,2013-03-10 00:49:00,
2013-03-09 19:54:00,51.1,29.8,29.78,SE,135,0.0,0.0,44,0.00,,,0.00,WUHU21623XXSP,2013-03-10 00:54:00,
2013-03-09 19:59:00,51.3,30.0,29.78,SE,135,0.0,0.0,44,0.00,,,0.00,WUHU21623XXSP,2013-03-10 00:59:00,
2013-03-09 20:04:00,51.4,30.7,29.79,SE,135,0.0,0.0,45,0.00,,,0.00,WUHU21623XXSP,2013-03-10 01:04:00,
2013-03-09 20:09:00,51.6,30.8,29.79,SE,135,0.0,0.0,45,0.00,,,0.00,WUHU21623XXSP,2013-03-10 01:09:00,
2013-03-09 20:14:00,51.6,30.8,29.78,SE,135,0.0,0.0,45,0.00,,,0.00,WUHU21623XXSP,2013-03-10 01:14:00,
2013-03-09 20:19:00,51.6,30.8,29.78,SE,135,0.0,0.0,45,0.00,,,0.00,WUHU21623XXSP,2013-03-10 01:19:00,
2013-03-09 20:24:00,51.6,30.8,29.78,SE,135,0.0,0.0,45,0.00,,,0.00,WUHU21623XXSP,2013-03-10 01:24:00,
2013-03-09 20:29:00,51.6,31.4,29.78,SE,135,0.0,0.0,46,0.00,,,0.00,WUHU21623XXSP,2013-03-10 01:29:00,
2013-03-09 20:34:00,51.4,31.2,29.78,SE,135,0.0,0.0,46,0.00,,,0.00,WUHU21623XXSP,2013-03-10 01:34:00,
2013-03-09 20:39:00,51.6,31.4,29.79,SE,135,0.0,0.0,46,0.00,,,0.00,WUHU21623XXSP,2013-03-10 01:39:00,
2013-03-09 20:44:00,51.6,31.4,29.78,SE,135,0.0,0.0,46,0.00,,,0.00,WUHU21623XXSP,2013-03-10 01:44:00,
2013-03-09 20:49:00,51.8,31.6,29.79,SE,135,0.0,0.0,46,0.00,,,0.00,WUHU21623XXSP,2013-03-10 01:49:00,
2013-03-09 20:54:00,52.0,31.7,29.79,SE,135,0.0,0.0,46,0.00,,,0.00,WUHU21623XXSP,2013-03-10 01:54:00,
2013-03-09 20:59:00,52.2,32.5,29.79,SE,135,0.0,0.0,47,0.00,,,0.00,WUHU21623XXSP,2013-03-10 01:59:00,
2013-03-09 21:05:00,52.3,32.6,29.80,SE,135,0.0,0.0,47,0.00,,,0.00,WUHU21623XXSP,2013-03-10 02:05:00,
2013-03-09 21:10:00,52.3,32.6,29.80,SE,135,0.0,0.0,47,0.00,,,0.00,WUHU21623XXSP,2013-03-10 02:10:00,
2013-03-09 21:15:00,52.3,32.6,29.80,SE,135,0.0,0.0,47,0.00,,,0.00,WUHU21623XXSP,2013-03-10 02:15:00,
2013-03-09 21:20:00,52.3,33.2,29.80,SE,135,0.0,0.0,48,0.00,,,0.00,WUHU21623XXSP,2013-03-10 02:20:00,
2013-03-09 21:25:00,52.3,33.2,29.80,SE,135,0.0,0.0,48,0.00,,,0.00,WUHU21623XXSP,2013-03-10 02:25:00,
2013-03-09 21:30:00,52.3,32.6,29.80,SE,135,0.0,0.0,47,0.00,,,0.00,WUHU21623XXSP,2013-03-10 02:30:00,
2013-03-09 21:35:00,52.5,32.8,29.80,SE,135,0.0,0.0,47,0.00,,,0.00,WUHU21623XXSP,2013-03-10 02:35:00,
2013-03-09 21:40:00,52.7,32.4,29.80,SE,135,0.0,0.0,46,0.00,,,0.00,WUHU21623XXSP,2013-03-10 02:40:00,
2013-03-09 21:45:00,52.7,32.9,29.80,SE,135,0.0,0.0,47,0.00,,,0.00,WUHU21623XXSP,2013-03-10 02:45:00,
2013-03-09 21:50:00,52.3,32.6,29.80,SE,135,0.0,0.0,47,0.00,,,0.00,WUHU21623XXSP,2013-03-10 02:50:00,
2013-03-09 21:55:00,51.6,32.0,29.80,SE,135,0.0,0.0,47,0.00,,,0.00,WUHU21623XXSP,2013-03-10 02:55:00,
2013-03-09 22:00:00,51.3,32.2,29.80,SE,135,0.0,0.0,48,0.00,,,0.00,WUHU21623XXSP,2013-03-10 03:00:00,
2013-03-09 22:05:00,50.7,32.3,29.80,SE,135,0.0,0.0,49,0.00,,,0.00,WUHU21623XXSP,2013-03-10 03:05:00,
2013-03-09 22:10:00,50.7,32.3,29.80,SE,135,0.0,0.0,49,0.00,,,0.00,WUHU21623XXSP,2013-03-10 03:10:00,
2013-03-09 22:15:00,50.5,32.1,29.80,SE,135,0.0,0.0,49,0.00,,,0.00,WUHU21623XXSP,2013-03-10 03:15:00,
2013-03-09 22:20:00,50.2,32.3,29.80,SE,135,0.0,0.0,50,0.00,,,0.00,WUHU21623XXSP,2013-03-10 03:20:00,
2013-03-09 22:25:00,49.6,31.8,29.80,SE,135,0.0,0.0,50,0.00,,,0.00,WUHU21623XXSP,2013-03-10 03:25:00,
2013-03-09 22:30:00,49.3,31.5,29.80,SE,135,0.0,0.0,50,0.00,,,0.00,WUHU21623XXSP,2013-03-10 03:30:00,
2013-03-09 22:35:00,48.6,31.2,29.80,SE,135,0.0,0.0,51,0.00,,,0.00,WUHU21623XXSP,2013-03-10 03:35:00,
2013-03-09 22:40:00,48.2,31.3,29.80,SE,135,0.0,0.0,52,0.00,,,0.00,WUHU21623XXSP,2013-03-10 03:40:00,
2013-03-09 22:45:00,48.0,31.1,29.80,SE,135,0.0,0.0,52,0.00,,,0.00,WUHU21623XXSP,2013-03-10 03:45:00,
2013-03-09 22:50:00,47.5,31.1,29.80,SE,135,0.0,0.0,53,0.00,,,0.00,WUHU21623XXSP,2013-03-10 03:50:00,
2013-03-09 22:55:00,47.1,31.2,29.80,SE,135,0.0,0.0,54,0.00,,,0.00,WUHU21623XXSP,2013-03-10 03:55:00,
2013-03-09 23:00:00,46.9,31.1,29.80,SE,135,0.0,0.0,54,0.00,,,0.00,WUHU21623XXSP,2013-03-10 04:00:00,
2013-03-09 23:05:00,46.8,31.4,29.80,SE,135,0.0,0.0,55,0.00,,,0.00,WUHU21623XXSP,2013-03-10 04:05:00,
2013-03-09 23:10:00,46.6,31.6,29.80,SE,135,0.0,0.0,56,0.00,,,0.00,WUHU21623XXSP,2013-03-10 04:10:00,
2013-03-09 23:15:00,46.6,31.6,29.80,SE,135,0.0,0.0,56,0.00,,,0.00,WUHU21623XXSP,2013-03-10 04:15:00,
2013-03-09 23:20:00,46.2,31.7,29.80,SE,135,0.0,0.0,57,0.00,,,0.00,WUHU21623XXSP,2013-03-10 04:20:00,
2013-03-09 23:25:00,46.0,32.0,29.80,SE,135,0.0,0.0,58,0.00,,,0.00,WUHU21623XXSP,2013-03-10 04:25:00,
2013-03-09 23:30:00,46.0,32.0,29.79,SE,135,0.0,0.0,58,0.00,,,0.00,WUHU21623XXSP,2013-03-10 04:30:00,
2013-03-09 23:35:00,46.0,32.0,29.79,SE,135,0.0,0.0,58,0.00,,,0.00,WUHU21623XXSP,2013-03-10 04:35:00,
2013-03-09 23:40:00,45.7,31.7,29.79,SE,135,0.0,0.0,58,0.00,,,0.00,WUHU21623XXSP,2013-03-10 04:40:00,
2013-03-09 23:45:00,45.5,31.6,29.79,SE,135,0.0,0.0,58,0.00,,,0.00,WUHU21623XXSP,2013-03-10 04:45:00,
2013-03-09 23:50:00,45.3,32.3,29.79,SE,135,0.0,0.0,60,0.00,,,0.00,WUHU21623XXSP,2013-03-10 04:50:00,
2013-03-09 23:55:00,45.1,31.7,29.79,SE,135,0.0,0.0,59,0.00,,,0.00,WUHU21623XXSP,2013-03-10 04:55:00,